Zvartnots, Armenia

3:28 AM +04 on August 24, 2017 (GMT +0400)
Zvartnots

Weather History for UDYZ - March, 2013

Change the Weather History Date:

Tuesday, March 12, 2013

  Actual Average Record
Temperature  
Mean Temperature 50 °F -  
Max Temperature 62 °F - - ()
Min Temperature 37 °F - - ()
Degree Days  
Heating Degree Days 16    
Moisture  
Dew Point 34 °F    
Average Humidity 53    
Maximum Humidity 75    
Minimum Humidity 34    
Precipitation  
Precipitation 0.00 in - - ()
Sea Level Pressure  
Sea Level Pressure 29.88 in    
Wind  
Wind Speed 4 mph ()    
Max Wind Speed 22 mph    
Max Gust Speed 27 mph    
Visibility 6.2 miles    
Events      
T = Trace of Precipitation, MM = Missing Value Source: Averaged Metar Reports

Daily Weather History Graph

Daily Weather History Graph

Search for Another Location

Airport or City:

Trip Planner

Search our weather history database for the weather conditions in past years. The results will help you decide how hot, cold, wet, or windy it might be!

Date:

Astronomy

Mar. 12, 2013 Rise Set
Actual Time 7:18 AM +04 7:05 PM +04
Civil Twilight 6:51 AM +04 7:33 PM +04
Nautical Twilight 6:20 AM +04 8:04 PM +04
Astronomical Twilight 5:48 AM +04 8:36 PM +04
Moon 7:13 AM +04 (3/12) 7:57 PM +04 (3/12)
Length of Visible Light 12h 41m
Length of Day
11h 47m
New Moon, 0% of the Moon is Illuminated
Mar 12
New Moon
Mar 19
First Quarter
Mar 27
Full
Apr 3
Last Quarter
Apr 10
New

Hourly Weather History & Observations

Time (+04) Temp. Windchill Dew Point Humidity Pressure Visibility Wind Dir Wind Speed Gust Speed Precip Events Conditions
12:00 AM 42.8 °F - 30.2 °F 61% 29.89 in 6.2 mi Calm Calm - N/A   Scattered Clouds
12:30 AM 42.8 °F - 28.4 °F 57% 29.89 in 6.2 mi Variable 2.2 mph - N/A   Scattered Clouds
1:00 AM 41.0 °F - 30.2 °F 65% 29.89 in 6.2 mi Calm Calm - N/A   Scattered Clouds
1:30 AM 41.0 °F - 28.4 °F 61% 29.89 in 6.2 mi Calm Calm - N/A   Mostly Cloudy
2:00 AM 39.2 °F - 30.2 °F 70% 29.89 in 6.2 mi Variable 2.2 mph - N/A   Mostly Cloudy
2:30 AM 39.2 °F - 30.2 °F 70% 29.89 in 6.2 mi Calm Calm - N/A   Mostly Cloudy
3:00 AM 37.4 °F 33.9 °F 30.2 °F 75% 29.89 in 6.2 mi Variable 4.5 mph - N/A   Mostly Cloudy
3:30 AM 39.2 °F - 32.0 °F 75% 29.89 in 6.2 mi Variable 2.2 mph - N/A   Mostly Cloudy
4:00 AM 41.0 °F - 32.0 °F 70% 29.89 in 6.2 mi Variable 2.2 mph - N/A   Mostly Cloudy
4:30 AM 41.0 °F - 32.0 °F 70% 29.86 in 6.2 mi Variable 2.2 mph - N/A   Overcast
5:00 AM 42.8 °F - 32.0 °F 66% 29.86 in 6.2 mi Variable 2.2 mph - N/A   Overcast
5:30 AM 42.8 °F - 33.8 °F 70% 29.86 in 6.2 mi Variable 2.2 mph - N/A   Overcast
6:00 AM 44.6 °F - 33.8 °F 66% 29.86 in 6.2 mi Variable 2.2 mph - N/A   Overcast
6:30 AM 42.8 °F - 32.0 °F 66% 29.89 in 6.2 mi Variable 2.2 mph - N/A   Overcast
7:00 AM 42.8 °F - 33.8 °F 70% 29.89 in 6.2 mi Variable 2.2 mph - N/A   Overcast
7:30 AM 46.4 °F - 33.8 °F 62% 29.89 in 6.2 mi Variable 2.2 mph - N/A   Overcast
8:00 AM 46.4 °F 43.0 °F 35.6 °F 66% 29.89 in 6.2 mi NNE 6.7 mph - N/A   Overcast
8:30 AM 44.6 °F - 33.8 °F 66% 29.89 in 6.2 mi Variable 2.2 mph - N/A   Overcast
9:00 AM 44.6 °F - 35.6 °F 71% 29.89 in 6.2 mi Calm Calm - N/A   Overcast
9:30 AM 48.2 °F - 33.8 °F 58% 29.89 in 6.2 mi Calm Calm - N/A   Overcast
10:00 AM 50.0 °F - 35.6 °F 58% 29.89 in 6.2 mi Calm Calm - N/A   Overcast
10:30 AM 51.8 °F - 32.0 °F 47% 29.89 in 6.2 mi Variable 2.2 mph - N/A   Overcast
11:00 AM 51.8 °F - 32.0 °F 47% 29.89 in 6.2 mi Calm Calm - N/A   Overcast
11:30 AM 51.8 °F - 35.6 °F 54% 29.92 in 6.2 mi Calm Calm - N/A   Overcast
12:00 PM 55.4 °F - 33.8 °F 44% 29.89 in 6.2 mi ENE 4.5 mph - N/A   Overcast
12:30 PM 57.2 °F - 32.0 °F 38% 29.89 in 6.2 mi Variable 4.5 mph - N/A   Overcast
1:00 PM 57.2 °F - 32.0 °F 38% 29.89 in 6.2 mi Variable 4.5 mph - N/A   Mostly Cloudy
1:30 PM 60.8 °F - 32.0 °F 34% 29.89 in 6.2 mi Variable 2.2 mph - N/A   Mostly Cloudy
2:00 PM 60.8 °F - 32.0 °F 34% 29.86 in 6.2 mi Variable 4.5 mph - N/A   Mostly Cloudy
2:30 PM 60.8 °F - 32.0 °F 34% 29.86 in 6.2 mi Variable 2.2 mph - N/A   Mostly Cloudy
3:00 PM 62.6 °F - 35.6 °F 37% 29.86 in 6.2 mi West 13.4 mph 26.8 mph N/A   Mostly Cloudy
3:30 PM 62.6 °F - 35.6 °F 37% 29.83 in 6.2 mi WSW 20.1 mph - N/A   Mostly Cloudy
4:00 PM 62.6 °F - 33.8 °F 34% 29.83 in 6.2 mi WSW 22.4 mph - N/A   Mostly Cloudy
4:30 PM 62.6 °F - 33.8 °F 34% 29.83 in 6.2 mi WSW 22.4 mph - N/A   Mostly Cloudy
5:00 PM 60.8 °F - 35.6 °F 39% 29.83 in 6.2 mi WSW 17.9 mph - N/A   Mostly Cloudy
5:30 PM 60.8 °F - 35.6 °F 39% 29.83 in 6.2 mi WSW 22.4 mph - N/A   Mostly Cloudy
6:00 PM 59.0 °F - 35.6 °F 42% 29.86 in 6.2 mi West 17.9 mph - N/A   Mostly Cloudy
6:30 PM 59.0 °F - 35.6 °F 42% 29.86 in 6.2 mi West 15.7 mph - N/A   Mostly Cloudy
7:30 PM 57.2 °F - 35.6 °F 44% 29.89 in 6.2 mi West 15.7 mph - N/A   Mostly Cloudy
8:00 PM 57.2 °F - 35.6 °F 44% 29.89 in 6.2 mi West 13.4 mph - N/A   Mostly Cloudy
8:30 PM 57.2 °F - 35.6 °F 44% 29.89 in 6.2 mi WNW 11.2 mph - N/A   Mostly Cloudy
9:00 PM 57.2 °F - 35.6 °F 44% 29.89 in 6.2 mi WNW 8.9 mph - N/A   Mostly Cloudy
9:30 PM 57.2 °F - 35.6 °F 44% 29.89 in 6.2 mi NW 6.7 mph - N/A   Mostly Cloudy
10:00 PM 55.4 °F - 35.6 °F 47% 29.89 in 6.2 mi NW 6.7 mph - N/A   Mostly Cloudy
10:30 PM 55.4 °F - 37.4 °F 51% 29.89 in 6.2 mi WNW 4.5 mph - N/A   Mostly Cloudy
11:00 PM 55.4 °F - 37.4 °F 51% 29.89 in 6.2 mi West 4.5 mph - N/A   Mostly Cloudy
11:30 PM 55.4 °F - 37.4 °F 51% 29.89 in 6.2 mi Calm Calm - N/A   Mostly Cloudy